• In Russia
  • List of Countries
  • For 7 days
  • Water Temperature
  • Satellite Maps
  • Weather Map
  • Weather Widgets
  • user-avatar
    Login

    Hourly Weather Durres

    Today, 10 December, Saturday

    Time Temperature Precipitation Wind Pressure Humidity
    00:00 +5°C° 0 mm 3 mps 769 mmHg 72%
    01:00 +5°C° 0 mm 3 mps 769 mmHg 67%
    02:00 +5°C° 0 mm 3 mps 769 mmHg 66%
    03:00 +5°C° 0 mm 3 mps 769 mmHg 66%
    04:00 +5°C° 0 mm 3 mps 768 mmHg 65%
    05:00 +5°C° 0 mm 3 mps 768 mmHg 64%
    06:00 +5°C° 0 mm 3 mps 768 mmHg 62%
    07:00 +5°C° 0 mm 3 mps 768 mmHg 61%
    08:00 +8°C° 0 mm 3 mps 768 mmHg 54%
    09:00 +12°C° 0 mm 2 mps 768 mmHg 47%
    10:00 +14°C° 0 mm 2 mps 768 mmHg 40%
    11:00 +14°C° 0 mm 3 mps 768 mmHg 40%
    12:00 +16°C° 0 mm 3 mps 768 mmHg 40%
    13:00 +16°C° 0 mm 3 mps 768 mmHg 41%
    14:00 +13°C° 0 mm 3 mps 767 mmHg 49%
    15:00 +11°C° 0 mm 3 mps 767 mmHg 58%
    16:00 +9°C° 0 mm 3 mps 767 mmHg 66%
    17:00 +8°C° 0 mm 3 mps 767 mmHg 66%
    18:00 +8°C° 0 mm 3 mps 767 mmHg 66%
    19:00 +7°C° 0 mm 2 mps 767 mmHg 66%
    20:00 +7°C° 0 mm 2 mps 767 mmHg 68%
    21:00 +7°C° 0 mm 2 mps 767 mmHg 70%
    22:00 +7°C° 0 mm 2 mps 767 mmHg 71%
    23:00 +7°C° 0 mm 2 mps 767 mmHg 72%

    Tomorrow, 11 December, Sunday

    Time Temperature Precipitation Wind Pressure Humidity
    00:00 +7°C° 0 mm 1 mps 766 mmHg 73%
    01:00 +7°C° 0 mm 1 mps 766 mmHg 74%
    02:00 +7°C° 0 mm 1 mps 766 mmHg 74%
    03:00 +7°C° 0 mm 1 mps 766 mmHg 75%
    04:00 +7°C° 0 mm 1 mps 766 mmHg 75%
    05:00 +7°C° 0 mm 1 mps 765 mmHg 74%
    06:00 +7°C° 0 mm 1 mps 765 mmHg 74%
    07:00 +7°C° 0 mm 1 mps 765 mmHg 74%
    08:00 +9°C° 0 mm 1 mps 765 mmHg 63%
    09:00 +12°C° 0 mm 1 mps 765 mmHg 51%
    10:00 +15°C° 0 mm 1 mps 765 mmHg 40%
    11:00 +15°C° 0 mm 1 mps 764 mmHg 42%
    12:00 +16°C° 0 mm 1 mps 764 mmHg 44%
    13:00 +16°C° 0 mm 1 mps 763 mmHg 46%
    14:00 +14°C° 0 mm 1 mps 763 mmHg 56%
    15:00 +12°C° 0 mm 1 mps 763 mmHg 66%
    16:00 +10°C° 0 mm 1 mps 763 mmHg 76%
    17:00 +9°C° 0 mm 1 mps 763 mmHg 78%
    18:00 +9°C° 0 mm 1 mps 762 mmHg 80%
    19:00 +8°C° 0 mm 1 mps 762 mmHg 82%
    20:00 +8°C° 0 mm 1 mps 762 mmHg 83%
    21:00 +8°C° 0 mm 1 mps 762 mmHg 84%
    22:00 +7°C° 0 mm 1 mps 762 mmHg 85%
    23:00 +7°C° 0 mm 1 mps 762 mmHg 85%

    Day after tomorrow, 12 December, Monday

    Time Temperature Precipitation Wind Pressure Humidity
    00:00 +7°C° 0 mm 1 mps 762 mmHg 85%
    01:00 +7°C° 0 mm 1 mps 762 mmHg 86%
    02:00 +7°C° 0 mm 1 mps 762 mmHg 86%
    03:00 +7°C° 0 mm 1 mps 761 mmHg 86%
    04:00 +7°C° 0 mm 1 mps 761 mmHg 87%
    05:00 +7°C° 0 mm 1 mps 761 mmHg 87%
    06:00 +6°C° 0 mm 1 mps 761 mmHg 86%
    07:00 +6°C° 0 mm 1 mps 761 mmHg 86%
    08:00 +9°C° 0 mm 1 mps 761 mmHg 77%
    09:00 +11°C° 0 mm 1 mps 761 mmHg 68%
    10:00 +13°C° 0 mm 1 mps 761 mmHg 58%
    11:00 +14°C° 0 mm 1 mps 761 mmHg 57%
    12:00 +14°C° 0 mm 1 mps 761 mmHg 56%
    13:00 +15°C° 0 mm 1 mps 761 mmHg 55%
    14:00 +13°C° 0 mm 2 mps 761 mmHg 61%
    15:00 +12°C° 0 mm 2 mps 761 mmHg 68%
    16:00 +10°C° 0 mm 3 mps 761 mmHg 75%
    17:00 +9°C° 0 mm 3 mps 762 mmHg 77%
    18:00 +7°C° 0 mm 4 mps 762 mmHg 79%
    19:00 +6°C° 0 mm 4 mps 762 mmHg 81%
    20:00 +6°C° 0 mm 5 mps 763 mmHg 79%
    21:00 +6°C° 0 mm 5 mps 763 mmHg 77%
    22:00 +6°C° 0 mm 5 mps 764 mmHg 75%
    23:00 +5°C° 0 mm 5 mps 764 mmHg 74%

    13 December, Tuesday

    Time Temperature Precipitation Wind Pressure Humidity
    00:00 +5°C° 0 mm 5 mps 764 mmHg 73%
    01:00 +5°C° 0 mm 5 mps 764 mmHg 73%
    02:00 +5°C° 0 mm 5 mps 764 mmHg 73%
    03:00 +5°C° 0 mm 5 mps 764 mmHg 72%
    04:00 +3°C° 0 mm 5 mps 764 mmHg 72%
    05:00 +3°C° 0 mm 5 mps 765 mmHg 72%
    06:00 +3°C° 0 mm 5 mps 765 mmHg 72%
    07:00 +4°C° 0 mm 4 mps 766 mmHg 71%
    08:00 +6°C° 0 mm 5 mps 766 mmHg 65%
    09:00 +8°C° 0 mm 5 mps 766 mmHg 59%
    10:00 +9°C° 0 mm 5 mps 766 mmHg 52%
    11:00 +11°C° 0 mm 4 mps 766 mmHg 49%
    12:00 +12°C° 0 mm 4 mps 766 mmHg 46%
    13:00 +13°C° 0 mm 4 mps 766 mmHg 42%
    14:00 +11°C° 0 mm 4 mps 766 mmHg 48%
    15:00 +10°C° 0 mm 4 mps 766 mmHg 54%
    16:00 +7°C° 0 mm 4 mps 766 mmHg 59%
    17:00 +7°C° 0 mm 4 mps 767 mmHg 61%
    18:00 +6°C° 0 mm 4 mps 767 mmHg 62%
    19:00 +6°C° 0 mm 4 mps 768 mmHg 63%
    20:00 +5°C° 0 mm 4 mps 768 mmHg 65%
    21:00 +5°C° 0 mm 4 mps 768 mmHg 67%
    22:00 +4°C° 0 mm 3 mps 768 mmHg 68%
    23:00 +4°C° 0 mm 3 mps 768 mmHg 69%

    14 December, Wednesday

    Time Temperature Precipitation Wind Pressure Humidity
    00:00 +4°C° 0 mm 3 mps 768 mmHg 69%
    01:00 +4°C° 0 mm 3 mps 768 mmHg 70%
    02:00 +4°C° 0 mm 3 mps 768 mmHg 69%
    03:00 +5°C° 0 mm 2 mps 768 mmHg 68%
    04:00 +5°C° 0 mm 2 mps 768 mmHg 67%
    05:00 +5°C° 0 mm 2 mps 768 mmHg 65%
    06:00 +5°C° 0 mm 2 mps 768 mmHg 63%
    07:00 +5°C° 0 mm 2 mps 768 mmHg 61%
    08:00 +7°C° 0 mm 2 mps 768 mmHg 55%
    09:00 +9°C° 0 mm 2 mps 768 mmHg 50%
    10:00 +12°C° 0 mm 2 mps 768 mmHg 44%
    11:00 +12°C° 0 mm 2 mps 768 mmHg 45%
    12:00 +13°C° 0 mm 1 mps 767 mmHg 45%
    13:00 +13°C° 0 mm 1 mps 767 mmHg 46%
    14:00 +12°C° 0 mm 1 mps 767 mmHg 54%
    15:00 +10°C° 0 mm 1 mps 767 mmHg 62%
    16:00 +8°C° 0 mm 1 mps 766 mmHg 70%
    17:00 +8°C° 0 mm 1 mps 766 mmHg 72%
    18:00 +7°C° 0 mm 1 mps 766 mmHg 74%
    19:00 +7°C° 0 mm 1 mps 766 mmHg 76%
    20:00 +7°C° 0 mm 1 mps 766 mmHg 78%
    21:00 +6°C° 0 mm 1 mps 766 mmHg 80%
    22:00 +6°C° 0 mm 1 mps 766 mmHg 82%
    23:00 +6°C° 0 mm 1 mps 766 mmHg 83%

    15 December, Thursday

    Time Temperature Precipitation Wind Pressure Humidity
    00:00 +6°C° 0 mm 1 mps 766 mmHg 83%
    01:00 +6°C° 0 mm 1 mps 766 mmHg 84%
    02:00 +6°C° 0 mm 1 mps 766 mmHg 85%
    03:00 +5°C° 0 mm 1 mps 766 mmHg 86%
    04:00 +5°C° 0 mm 1 mps 765 mmHg 87%
    05:00 +5°C° 0 mm 1 mps 765 mmHg 87%
    06:00 +5°C° 0 mm 1 mps 765 mmHg 87%
    07:00 +5°C° 0 mm 1 mps 765 mmHg 87%
    08:00 +7°C° 0 mm 1 mps 765 mmHg 78%
    09:00 +9°C° 0 mm 1 mps 765 mmHg 68%
    10:00 +12°C° 0 mm 1 mps 765 mmHg 59%
    11:00 +12°C° 0 mm 1 mps 765 mmHg 58%
    12:00 +12°C° 0 mm 1 mps 764 mmHg 57%
    13:00 +13°C° 0 mm 1 mps 764 mmHg 57%
    14:00 +11°C° 0 mm 1 mps 764 mmHg 65%
    15:00 +10°C° 0 mm 1 mps 764 mmHg 72%
    16:00 +7°C° 0 mm 0 mps 764 mmHg 80%
    17:00 +8°C° 0 mm 1 mps 764 mmHg 83%
    18:00 +7°C° 0 mm 1 mps 764 mmHg 85%
    19:00 +6°C° 0 mm 1 mps 764 mmHg 87%
    20:00 +6°C° 0 mm 1 mps 764 mmHg 87%
    21:00 +6°C° 0 mm 1 mps 764 mmHg 87%
    22:00 +5°C° 0 mm 2 mps 765 mmHg 87%
    23:00 +5°C° 0 mm 2 mps 764 mmHg 87%
    Show more